User: anonymous   Login
Location: Unspecified
(0.0000°N, 0.0000°E)
Time: 21:45:52
(UTC+00:00)
Language:

COSMOS 2251 DEB - Orbit

View from above orbital plane
View from above orbital plane
View from above satellite
View from above satellite

Ground track
Ground track

The orbit data is extracted from the following two-line orbital elements,

1 35701U 93036APW 24047.46762672  .00008254  00000-0  61057-2 0  9994
2 35701  74.0099 336.7891 0303967 327.4731  30.7970 13.75726993529913
Epoch (UTC): 16 February 2024 11:13:22
Eccentricity: 0.0303967
inclination: 74.0099°
perigee height: 755 km
apogee height: 1203 km
right ascension of ascending node: 336.7891°
argument of perigee: 327.4731°
revolutions per day: 13.75726993
mean anomaly at epoch: 30.7970°
orbit number at epoch: 52991

The dashed part of the orbit path shows where the satellite is in the earth's shadow,  

DLR